Change the Weather History Date:

Sunday, December 18, 2011

  Actual Average (KORF) Record (KORF)
Temperature  
Mean Temperature 37 °F 43 °F  
Max Temperature 46 °F 51 °F 75 °F (1984)
Min Temperature 28 °F 35 °F 17 °F (1875)
Degree Days  
Heating Degree Days 28 22  
Month to date heating degree days 350  
Since 1 July heating degree days 880  
Cooling Degree Days 0 0  
Month to date cooling degree days 0  
Year to date cooling degree days 1628  
Moisture  
Dew Point 28 °F    
Average Humidity 69    
Maximum Humidity 100    
Minimum Humidity 46    
Precipitation  
Precipitation 0.00 in 0.11 in 0.83 in (1959)
Month to date precipitation 1.91  
Year to date precipitation 45.18  
Snow  
Snow 0.00 in 0.00 in 1.80 in (1981)
Month to date snowfall 0.4  
Since 1 July snowfall 0.4  
Snow Depth -    
Sea Level Pressure  
Sea Level Pressure 30.29 in    
Wind  
Wind Speed 2 mph (NW)    
Max Wind Speed 12 mph    
Max Gust Speed 17 mph    
Visibility 6 miles    
Events      
T = Trace of Precipitation, MM = Missing Value Source: NWS Daily Summary

Daily Weather History Graph

Daily Weather History Graph

Search for Another Location

Airport or City:

Trip Planner

Search our weather history database for the weather conditions in past years. The results will help you decide how hot, cold, wet, or windy it might be!

Date:

Astronomy

Dec. 18, 2011 Rise Set
Actual Time 7:12 AM EST 4:51 PM EST
Civil Twilight 6:43 AM EST 5:20 PM EST
Nautical Twilight 6:10 AM EST 5:52 PM EST
Astronomical Twilight 5:39 AM EST 6:24 PM EST
Moon 12:18 AM EST (12/18) 12:08 PM EST (12/18)
Length of Visible Light 10h 37m
Length of Day
9h 39m
Last Quarter, 42% of the Moon is Illuminated
Dec 18
Last Quarter
Dec 24
New
Jan 1
First Quarter
Jan 9
Full
Jan 16
Last Quarter

Hourly Weather History & Observations

Time (EST) Temp. Windchill Dew Point Humidity Pressure Visibility Wind Dir Wind Speed Gust Speed Precip Events Conditions
12:15 AM 30.2 °F - 28.4 °F 93% 30.21 in 5.0 mi Calm Calm - N/A   Clear
12:35 AM 30.2 °F - 28.4 °F 93% 30.21 in 5.0 mi Calm Calm - N/A   Clear
12:55 AM 30.2 °F - 28.4 °F 93% 30.22 in 5.0 mi Calm Calm - N/A   Clear
1:15 AM 33.8 °F - 28.4 °F 81% 30.21 in 7.0 mi Calm Calm - N/A   Mostly Cloudy
1:35 AM 32.0 °F 28.7 °F 28.4 °F 87% 30.21 in 7.0 mi West 3.5 mph - N/A   Overcast
1:55 AM 33.8 °F - 30.2 °F 87% 30.22 in 4.0 mi Calm Calm - N/A   Overcast
2:15 AM 35.6 °F - 30.2 °F 81% 30.22 in 5.0 mi Calm Calm - N/A   Overcast
2:35 AM 35.6 °F - 30.2 °F 81% 30.22 in 5.0 mi Calm Calm - N/A   Overcast
2:55 AM 35.6 °F - 30.2 °F 81% 30.23 in 7.0 mi Calm Calm - N/A   Overcast
3:15 AM 37.4 °F 34.9 °F 30.2 °F 75% 30.23 in 7.0 mi NW 3.5 mph - N/A   Overcast
3:35 AM 37.4 °F 34.9 °F 30.2 °F 75% 30.24 in 5.0 mi NNW 3.5 mph - N/A   Haze
4:15 AM 37.4 °F 33.8 °F 28.4 °F 70% 30.22 in 7.0 mi NNW 4.6 mph - N/A   Mostly Cloudy
4:35 AM 37.4 °F 34.9 °F 28.4 °F 70% 30.23 in 7.0 mi NNW 3.5 mph - N/A   Mostly Cloudy
4:55 AM 37.4 °F - 28.4 °F 70% 30.23 in 7.0 mi Calm Calm - N/A   Mostly Cloudy
5:15 AM 37.4 °F - 28.4 °F 70% 30.23 in 7.0 mi Calm Calm - N/A   Mostly Cloudy
5:35 AM 37.4 °F - 28.4 °F 70% 30.23 in 5.0 mi Calm Calm - N/A   Haze
5:55 AM 37.4 °F 34.9 °F 28.4 °F 70% 30.24 in 7.0 mi NNW 3.5 mph - N/A   Scattered Clouds
6:15 AM 37.4 °F - 26.6 °F 65% 30.24 in 7.0 mi Calm Calm - N/A   Mostly Cloudy
6:35 AM 35.6 °F 32.8 °F 26.6 °F 70% 30.25 in 7.0 mi NW 3.5 mph - N/A   Scattered Clouds
7:15 AM 33.8 °F - 26.6 °F 75% 30.26 in 7.0 mi Calm Calm - N/A   Mostly Cloudy
7:35 AM 33.8 °F - 26.6 °F 75% 30.26 in 5.0 mi Calm Calm - N/A   Haze
7:55 AM 32.0 °F - 28.4 °F 87% 30.27 in 5.0 mi Calm Calm - N/A   Scattered Clouds
8:15 AM 33.8 °F - 28.4 °F 81% 30.27 in 4.0 mi Calm Calm - N/A   Haze
8:35 AM 37.4 °F - 28.4 °F 70% 30.28 in 4.0 mi Calm Calm - N/A   Haze
9:15 AM 41.0 °F 37.1 °F 28.4 °F 61% 30.31 in 5.0 mi NW 5.8 mph - N/A   Clear
9:35 AM 42.8 °F 38.6 °F 28.4 °F 57% 30.31 in 7.0 mi NW 6.9 mph - N/A   Clear
9:55 AM 42.8 °F 41.1 °F 28.4 °F 57% 30.30 in 5.0 mi NW 3.5 mph - N/A   Haze
10:15 AM 42.8 °F 39.3 °F 26.6 °F 53% 30.30 in 5.0 mi NW 5.8 mph - N/A   Haze
10:35 AM 44.6 °F 40.2 °F 26.6 °F 49% 30.31 in 5.0 mi NNW 8.1 mph - N/A   Haze
10:55 AM 44.6 °F 39.7 °F 26.6 °F 49% 30.30 in 5.0 mi NNW 9.2 mph - N/A   Haze
11:15 AM 44.6 °F 40.2 °F 26.6 °F 49% 30.29 in 4.0 mi NW 8.1 mph - N/A   Haze
11:35 AM 44.6 °F 39.2 °F 26.6 °F 49% 30.28 in 5.0 mi WNW 10.4 mph - N/A   Haze
11:55 AM 46.4 °F 41.9 °F 26.6 °F 46% 30.28 in 5.0 mi WNW 9.2 mph 17.3 mph N/A   Haze
12:15 PM 46.4 °F 41.1 °F 26.6 °F 46% 30.28 in 5.0 mi WNW 11.5 mph - N/A   Haze
12:35 PM 44.6 °F 38.8 °F 24.8 °F 46% 30.28 in 5.0 mi NW 11.5 mph 16.1 mph N/A   Haze
12:55 PM 46.4 °F 41.9 °F 26.6 °F 46% 30.27 in 5.0 mi West 9.2 mph - N/A   Haze
1:15 PM 46.4 °F 43.5 °F 26.6 °F 46% 30.27 in 4.0 mi NNW 5.8 mph 9.2 mph N/A   Haze
1:35 PM 46.4 °F 41.5 °F 26.6 °F 46% 30.27 in 5.0 mi NNW 10.4 mph - N/A   Haze
1:55 PM 46.4 °F 42.9 °F 26.6 °F 46% 30.27 in 4.0 mi NNW 6.9 mph - N/A   Haze
2:15 PM 46.4 °F 41.5 °F 26.6 °F 46% 30.27 in 5.0 mi NNW 10.4 mph - N/A   Haze
2:35 PM 44.6 °F 40.2 °F 26.6 °F 49% 30.27 in 5.0 mi NNW 8.1 mph - N/A   Haze
3:35 PM 44.6 °F 40.2 °F 26.6 °F 49% 30.27 in 5.0 mi NW 8.1 mph - N/A   Haze
3:55 PM 44.6 °F 40.7 °F 26.6 °F 49% 30.27 in 5.0 mi NNW 6.9 mph - N/A   Haze
4:15 PM 44.6 °F 40.7 °F 26.6 °F 49% 30.29 in 5.0 mi North 6.9 mph - N/A   Haze
4:35 PM 44.6 °F 41.4 °F 26.6 °F 49% 30.30 in 5.0 mi NNW 5.8 mph - N/A   Haze
4:55 PM 42.8 °F - 28.4 °F 57% 30.31 in 5.0 mi Calm Calm - N/A   Haze
5:15 PM 42.8 °F 41.1 °F 28.4 °F 57% 30.32 in 5.0 mi North 3.5 mph - N/A   Haze
5:35 PM 39.2 °F - 28.4 °F 65% 30.34 in 7.0 mi Calm Calm - N/A   Scattered Clouds
5:55 PM 39.2 °F - 28.4 °F 65% 30.34 in 5.0 mi Calm Calm - N/A   Haze
6:15 PM 35.6 °F - 30.2 °F 81% 30.35 in 5.0 mi Calm Calm - N/A   Haze
6:35 PM 35.6 °F - 30.2 °F 81% 30.36 in 5.0 mi Calm Calm - N/A   Haze
6:55 PM 33.8 °F - 28.4 °F 81% 30.36 in 5.0 mi Calm Calm - N/A   Haze
7:15 PM 32.0 °F 28.7 °F 28.4 °F 87% 30.38 in 4.0 mi South 3.5 mph - N/A   Clear
7:35 PM 33.8 °F - 28.4 °F 81% 30.38 in 7.0 mi Calm Calm - N/A   Clear
7:55 PM 33.8 °F - 28.4 °F 81% 30.37 in 7.0 mi Calm Calm - N/A   Clear
8:15 PM 32.0 °F - 28.4 °F 87% 30.37 in 5.0 mi Calm Calm - N/A   Clear
8:35 PM 30.2 °F - 28.4 °F 93% 30.38 in 7.0 mi Calm Calm - N/A   Clear
8:55 PM 30.2 °F - 28.4 °F 93% 30.38 in 5.0 mi Calm Calm - N/A   Clear
9:15 PM 28.4 °F - 26.6 °F 93% 30.38 in 5.0 mi Calm Calm - N/A   Clear
9:35 PM 30.2 °F - 28.4 °F 93% 30.38 in 5.0 mi Calm Calm - N/A   Clear
9:55 PM 28.4 °F - 28.4 °F 100% 30.38 in 7.0 mi Calm Calm - N/A   Clear
10:15 PM 30.2 °F - 28.4 °F 93% 30.38 in 5.0 mi Calm Calm - N/A   Clear
10:35 PM 28.4 °F - 28.4 °F 100% 30.38 in 5.0 mi Calm Calm - N/A   Clear
10:55 PM 28.4 °F - 26.6 °F 93% 30.38 in 5.0 mi Calm Calm - N/A   Clear
11:15 PM 28.4 °F - 26.6 °F 93% 30.37 in 5.0 mi Calm Calm - N/A   Clear
11:35 PM 28.4 °F 24.6 °F 26.6 °F 93% 30.37 in 5.0 mi SSW 3.5 mph - N/A   Clear
11:55 PM 28.4 °F - 26.6 °F 93% 30.37 in 5.0 mi Calm Calm - N/A   Clear